Quincy, IL

2:49 AM CDT on May 27, 2017 (GMT -0500)
Quincy Regional-Baldwin

Weather History for KUIN - May, 2013

Change the Weather History Date:

Monday, May 27, 2013

  Actual Average Record
Temperature  
Mean Temperature 68 °F 66 °F  
Max Temperature 73 °F 76 °F 94 °F (1911)
Min Temperature 63 °F 56 °F 34 °F (1907)
Degree Days  
Heating Degree Days 0 2  
Month to date heating degree days 141 128  
Since 1 July heating degree days 5626 5558  
Cooling Degree Days 3 3  
Month to date cooling degree days 74 51  
Year to date cooling degree days 88 69  
Growing Degree Days 17 (Base 50)    
Moisture  
Dew Point 62 °F    
Average Humidity 83    
Maximum Humidity 93    
Minimum Humidity 73    
Precipitation  
Precipitation 2.12 in 0.16 in 2.75 in (1973)
Month to date precipitation 6.95 3.92  
Year to date precipitation 20.80 13.47  
Sea Level Pressure  
Sea Level Pressure 29.91 in    
Wind  
Wind Speed 9 mph (NNE)    
Max Wind Speed 29 mph    
Max Gust Speed 37 mph    
Visibility 6 miles    
Events Rain , Thunderstorm    
T = Trace of Precipitation, MM = Missing Value Source: NWS Daily Summary

Daily Weather History Graph

Daily Weather History Graph

Search for Another Location

Airport or City:

Trip Planner

Search our weather history database for the weather conditions in past years. The results will help you decide how hot, cold, wet, or windy it might be!

Date:

Astronomy

May. 27, 2013 Rise Set
Actual Time 5:40 AM CDT 8:23 PM CDT
Civil Twilight 5:08 AM CDT 8:55 PM CDT
Nautical Twilight 4:29 AM CDT 9:35 PM CDT
Astronomical Twilight 3:44 AM CDT 10:20 PM CDT
Moon 11:03 PM CDT 8:18 AM CDT
Length of Visible Light 15h 46m
Length of Day
14h 43m
Waning Gibbous, 91% of the Moon is Illuminated
May 27
Waning Gibbous
May 31
Last Quarter
Jun 8
New
Jun 16
First Quarter
Jun 23
Full

Hourly Weather History & Observations

Time (CDT) Temp. Dew Point Humidity Pressure Visibility Wind Dir Wind Speed Gust Speed Precip Events Conditions
12:15 AM 64.4 °F 60.8 °F 88% 29.97 in 10.0 mi East 10.4 mph - N/A Thunderstorm Mostly Cloudy
12:54 AM 64.0 °F 61.0 °F 90% 29.97 in 3.0 mi ENE 9.2 mph 18.4 mph 0.04 in Rain , Thunderstorm Thunderstorms and Rain
1:01 AM 64.4 °F 60.8 °F 88% 29.97 in 4.0 mi NNE 8.1 mph 18.4 mph 0.01 in Rain , Thunderstorm Light Thunderstorms and Rain
1:11 AM 62.6 °F 60.8 °F 94% 29.98 in 1.8 mi NNE 13.8 mph 19.6 mph 0.22 in Rain , Thunderstorm Heavy Thunderstorms and Rain
1:27 AM 62.6 °F 62.6 °F 100% 29.98 in 2.0 mi NE 12.7 mph - 0.56 in Rain , Thunderstorm Heavy Thunderstorms and Rain
1:36 AM 64.4 °F 62.6 °F 94% 29.98 in 1.8 mi NE 9.2 mph - 0.73 in Rain , Thunderstorm Heavy Thunderstorms and Rain
1:45 AM 64.4 °F 62.6 °F 94% 29.96 in 1.2 mi East 8.1 mph - 0.89 in Rain , Thunderstorm Heavy Thunderstorms and Rain
1:51 AM 64.4 °F 62.6 °F 94% 29.96 in 2.5 mi East 5.8 mph - 0.95 in Rain , Thunderstorm Light Thunderstorms and Rain
1:54 AM 64.0 °F 63.0 °F 96% 29.95 in 2.5 mi East 10.4 mph - 0.99 in Rain , Thunderstorm Heavy Thunderstorms and Rain
2:08 AM 64.4 °F 62.6 °F 94% 29.95 in 5.0 mi East 11.5 mph - 0.02 in Rain , Thunderstorm Light Rain
2:20 AM 64.4 °F 62.6 °F 94% 29.96 in 2.5 mi NE 6.9 mph - 0.13 in Rain , Thunderstorm Heavy Thunderstorms and Rain
2:35 AM 64.4 °F 62.6 °F 94% 29.96 in 4.0 mi ENE 11.5 mph - 0.22 in Rain , Thunderstorm Heavy Rain
2:54 AM 64.0 °F 62.1 °F 93% 29.93 in 5.0 mi ENE 16.1 mph - 0.24 in Rain Rain
3:04 AM 62.6 °F 62.6 °F 100% 29.93 in 5.0 mi East 12.7 mph - 0.03 in Rain , Thunderstorm Rain
3:19 AM 62.6 °F 60.8 °F 94% 29.91 in 6.0 mi East 10.4 mph - 0.06 in Rain Light Rain
3:54 AM 63.0 °F 61.0 °F 93% 29.82 in 10.0 mi East 18.4 mph 27.6 mph 0.07 in Rain Light Rain
4:39 AM 62.6 °F 60.8 °F 94% 29.92 in 10.0 mi SE 6.9 mph - 0.00 in   Overcast
4:54 AM 63.0 °F 61.0 °F 93% 29.90 in 10.0 mi SE 5.8 mph - 0.00 in   Overcast
5:08 AM 62.6 °F 60.8 °F 94% 29.92 in 10.0 mi North 4.6 mph - 0.00 in Rain Light Rain
5:23 AM 62.6 °F 60.8 °F 94% 29.92 in 10.0 mi Calm Calm - 0.00 in Rain Light Rain
5:49 AM 62.6 °F 60.8 °F 94% 29.93 in 10.0 mi Calm Calm - 0.00 in   Overcast
5:54 AM 63.0 °F 60.1 °F 90% 29.93 in 8.0 mi West 3.5 mph - 0.00 in   Overcast
6:27 AM 62.6 °F 60.8 °F 94% 29.95 in 2.0 mi West 6.9 mph - N/A   Overcast
6:34 AM 62.6 °F 60.8 °F 94% 29.95 in 1.5 mi West 5.8 mph - N/A   Overcast
6:54 AM 64.0 °F 62.1 °F 93% 29.95 in 3.0 mi WNW 11.5 mph - 0.01 in   Overcast
7:12 AM 64.4 °F 62.6 °F 94% 29.96 in 10.0 mi West 5.8 mph - N/A   Overcast
7:21 AM 64.4 °F 62.6 °F 94% 29.96 in 10.0 mi WNW 8.1 mph - N/A   Overcast
7:47 AM 64.4 °F 62.6 °F 94% 29.97 in 10.0 mi NNW 9.2 mph - N/A   Overcast
7:54 AM 64.9 °F 62.1 °F 90% 29.96 in 10.0 mi North 9.2 mph - N/A   Mostly Cloudy
8:00 AM 64.4 °F 62.6 °F 94% 29.97 in 10.0 mi North 6.9 mph - N/A   Scattered Clouds
8:54 AM 66.0 °F 63.0 °F 90% 29.94 in 10.0 mi NNE 8.1 mph - N/A   Partly Cloudy
9:54 AM 69.1 °F 62.1 °F 78% 29.91 in 10.0 mi Calm Calm - N/A   Mostly Cloudy
10:54 AM 69.1 °F 63.0 °F 81% 29.90 in 10.0 mi SE 5.8 mph - N/A   Clear
11:31 AM 69.8 °F 64.4 °F 83% 29.92 in 10.0 mi Calm Calm - N/A Thunderstorm Mostly Cloudy
11:54 AM 66.9 °F 64.0 °F 90% 29.95 in 2.0 mi West 8.1 mph 18.4 mph 0.09 in Rain , Thunderstorm Heavy Thunderstorms and Rain
11:57 AM 66.2 °F 64.4 °F 94% 29.97 in 0.8 mi WSW 5.8 mph - 0.08 in Rain , Thunderstorm Heavy Thunderstorms and Rain
12:04 PM 66.2 °F 64.4 °F 94% 29.98 in 1.0 mi West 10.4 mph - 0.10 in Rain , Thunderstorm Thunderstorms and Rain
12:07 PM 66.2 °F 64.4 °F 94% 29.98 in 2.0 mi WNW 15.0 mph - 0.14 in Rain , Thunderstorm Thunderstorms and Rain
12:12 PM 64.4 °F 62.6 °F 94% 29.96 in 0.8 mi WNW 16.1 mph 20.7 mph 0.28 in Rain , Thunderstorm Heavy Thunderstorms and Rain
12:21 PM 64.4 °F 62.6 °F 94% 29.97 in 1.0 mi WNW 6.9 mph 20.7 mph 0.34 in Rain , Thunderstorm Heavy Thunderstorms and Rain
12:35 PM 64.4 °F 62.6 °F 94% 29.95 in 2.5 mi NNW 5.8 mph - 0.38 in Rain , Thunderstorm Thunderstorms and Rain
12:42 PM 64.4 °F 62.6 °F 94% 29.95 in 3.0 mi NNW 5.8 mph - 0.40 in Rain , Thunderstorm Thunderstorms and Rain
12:54 PM 64.9 °F 63.0 °F 93% 29.96 in 3.0 mi WNW 5.8 mph - 0.44 in Rain Rain
1:03 PM 64.4 °F 62.6 °F 94% 29.95 in 3.0 mi NW 4.6 mph - 0.02 in Rain , Thunderstorm Light Rain
1:17 PM 64.4 °F 62.6 °F 94% 29.95 in 2.5 mi WNW 5.8 mph - 0.06 in Rain Rain
1:51 PM 64.4 °F 62.6 °F 94% 29.90 in 7.0 mi SE 4.6 mph - 0.18 in Rain Light Rain
1:54 PM 64.0 °F 62.1 °F 93% 29.89 in 7.0 mi SE 5.8 mph - 0.18 in Rain Light Rain
2:12 PM 64.4 °F 62.6 °F 94% 29.90 in 6.0 mi South 13.8 mph - 0.02 in Rain , Thunderstorm Light Thunderstorms and Rain
2:27 PM 64.4 °F 62.6 °F 94% 29.85 in 5.0 mi South 20.7 mph 25.3 mph 0.06 in Rain Light Rain
2:54 PM 66.0 °F 62.1 °F 87% 29.81 in 10.0 mi South 20.7 mph - 0.09 in Rain Light Rain
3:54 PM 66.9 °F 60.1 °F 79% 29.64 in 10.0 mi SSE 18.4 mph 34.5 mph 0.01 in   Clear
4:54 PM 68.0 °F 62.1 °F 81% 29.77 in 10.0 mi WNW 6.9 mph - N/A   Clear
5:54 PM 70.0 °F 62.1 °F 76% 29.78 in 10.0 mi Calm Calm - N/A   Clear
6:54 PM 72.0 °F 62.1 °F 71% 29.79 in 10.0 mi WSW 4.6 mph - N/A   Clear
7:54 PM 71.1 °F 62.1 °F 73% 29.80 in 10.0 mi Calm Calm - N/A   Clear
8:54 PM 66.9 °F 63.0 °F 87% 29.81 in 10.0 mi SE 4.6 mph - N/A   Scattered Clouds
9:54 PM 68.0 °F 63.0 °F 84% 29.81 in 10.0 mi SSE 8.1 mph - N/A   Overcast
10:54 PM 70.0 °F 62.1 °F 76% 29.81 in 10.0 mi South 9.2 mph - N/A   Mostly Cloudy
11:54 PM 70.0 °F 63.0 °F 78% 29.80 in 10.0 mi South 11.5 mph - N/A   Mostly Cloudy